| time (UTC) | temp F | wind direction | speed knots | gust knots | rain 1hr in | rain 24hr in | rain mn in | humidity % | barometer mb |
| 20260506201522 | 76 | 313 | 5.2 | 10.4 | 0.00 | 0.00 | 0.00 | 71 | 1010.9 |
| 20260506200011 | 80 | 344 | 5.2 | 13.0 | 0.00 | 0.00 | 0.00 | 66 | 1010.8 |
| 20260506194515 | 82 | 43 | 0.0 | 2.6 | 0.00 | 0.00 | 0.00 | 66 | 1010.7 |
| 20260506193025 | 83 | 22 | 1.7 | 6.1 | 0.00 | 0.00 | 0.00 | 65 | 1010.6 |
| 20260506191524 | 85 | 61 | 0.9 | 7.0 | 0.00 | 0.00 | 0.00 | 63 | 1010.6 |
| 20260506190012 | 85 | 157 | 0.0 | 7.8 | 0.00 | 0.00 | 0.00 | 68 | 1010.7 |
| 20260506184520 | 84 | 110 | 1.7 | 5.2 | 0.00 | 0.00 | 0.00 | 68 | 1010.9 |
| 20260506183018 | 83 | 190 | 1.7 | 6.1 | 0.00 | 0.00 | 0.00 | 69 | 1011.2 |
| 20260506181522 | 81 | 133 | 0.9 | 6.1 | 0.00 | 0.00 | 0.00 | 72 | 1011.3 |
| 20260506180031 | 81 | 29 | 2.6 | 6.1 | 0.00 | 0.00 | 0.00 | 72 | 1011.5 |
| 20260506174523 | 79 | 27 | 3.5 | 7.8 | 0.00 | 0.00 | 0.00 | 74 | 1011.6 |
| 20260506173021 | 77 | 81 | 2.6 | 8.7 | 0.00 | 0.00 | 0.00 | 75 | 1011.7 |
| 20260506171534 | 75 | 45 | 2.6 | 7.0 | 0.00 | 0.00 | 0.00 | 79 | 1011.6 |
| 20260506170025 | 75 | 338 | 2.6 | 7.0 | 0.00 | 0.00 | 0.00 | 76 | 1011.8 |
| 20260506164514 | 78 | 78 | 3.5 | 6.1 | 0.00 | 0.00 | 0.00 | 81 | 1011.8 |
| 20260506163014 | 78 | 25 | 1.7 | 5.2 | 0.00 | 0.00 | 0.00 | 80 | 1011.6 |
| 20260506161521 | 78 | 30 | 0.0 | 3.5 | 0.00 | 0.00 | 0.00 | 80 | 1011.7 |
| 20260506160023 | 78 | 61 | 1.7 | 5.2 | 0.00 | 0.00 | 0.00 | 81 | 1011.5 |
| 20260506154529 | 78 | 43 | 2.6 | 6.1 | 0.00 | 0.00 | 0.00 | 81 | 1011.5 |
| 20260506153016 | 77 | 5 | 1.7 | 2.6 | 0.00 | 0.00 | 0.00 | 84 | 1011.3 |
| 20260506151524 | 76 | 92 | 0.9 | 3.5 | 0.00 | 0.00 | 0.00 | 85 | 1011.0 |
| 20260506150021 | 75 | 114 | 0.9 | 4.3 | 0.00 | 0.00 | 0.00 | 87 | 1010.9 |
| 20260506144525 | 74 | 110 | 1.7 | 5.2 | 0.00 | 0.00 | 0.00 | 89 | 1010.6 |
| 20260506141520 | 74 | 97 | 0.0 | 0.9 | 0.00 | 0.00 | 0.00 | 90 | 1010.9 |
| 20260506140026 | 74 | 98 | 0.0 | 1.7 | 0.00 | 0.00 | 0.00 | 91 | 1010.5 |
| 20260506134523 | 73 | 117 | 1.7 | 5.2 | 0.00 | 0.00 | 0.00 | 91 | 1009.8 |
| 20260506133030 | 73 | 88 | 0.9 | 3.5 | 0.00 | 0.00 | 0.00 | 91 | 1009.5 |
| 20260506131526 | 73 | 105 | 0.0 | 3.5 | 0.00 | 0.00 | 0.00 | 91 | 1009.4 |
| 20260506130019 | 73 | 126 | 0.0 | 1.7 | 0.00 | 0.00 | 0.00 | 92 | 1009.2 |
| 20260506124523 | 73 | 113 | 0.0 | 6.1 | 0.00 | 0.00 | 0.00 | 92 | 1009.0 |
| 20260506123026 | 73 | 108 | 0.9 | 3.5 | 0.00 | 0.00 | 0.00 | 92 | 1009.0 |
| 20260506121527 | 73 | 87 | 0.9 | 2.6 | 0.00 | 0.00 | 0.00 | 91 | 1009.0 |
| 20260506120020 | 73 | 104 | 0.0 | 0.0 | 0.00 | 0.00 | 0.00 | 91 | 1009.0 |
| 20260506114513 | 73 | 186 | 0.0 | 0.0 | 0.00 | 0.00 | 0.00 | 91 | 1009.0 |
| 20260506113008 | 73 | 186 | 0.0 | 0.0 | 0.00 | 0.00 | 0.00 | 91 | 1009.0 |
| 20260506111511 | 73 | 186 | 0.0 | 0.0 | 0.00 | 0.00 | 0.00 | 91 | 1009.1 |
| 20260506110020 | 73 | 186 | 0.0 | 1.7 | 0.00 | 0.00 | 0.00 | 91 | 1009.1 |
| 20260506104519 | 73 | 168 | 0.0 | 3.5 | 0.00 | 0.00 | 0.00 | 91 | 1009.1 |
| 20260506103007 | 73 | 199 | 0.0 | 4.3 | 0.00 | 0.00 | 0.00 | 91 | 1008.9 |
| 20260506101516 | 73 | 174 | 0.0 | 3.5 | 0.00 | 0.00 | 0.00 | 91 | 1008.9 |
| 20260506100022 | 73 | 190 | 2.6 | 7.0 | 0.00 | 0.00 | 0.00 | 91 | 1008.9 |
| 20260506094520 | 73 | 169 | 1.7 | 6.1 | 0.00 | 0.00 | 0.00 | 90 | 1008.9 |
| 20260506093024 | 73 | 155 | 0.9 | 6.1 | 0.00 | 0.00 | 0.00 | 90 | 1008.8 |
| 20260506091510 | 73 | 213 | 1.7 | 4.3 | 0.00 | 0.00 | 0.00 | 89 | 1008.6 |
| 20260506090018 | 74 | 184 | 1.7 | 6.1 | 0.00 | 0.00 | 0.00 | 89 | 1008.6 |
| 20260506084515 | 74 | 165 | 1.7 | 7.8 | 0.00 | 0.00 | 0.00 | 89 | 1008.4 |
| 20260506083018 | 74 | 135 | 2.6 | 8.7 | 0.00 | 0.00 | 0.00 | 89 | 1008.5 |
| 20260506081524 | 74 | 144 | 2.6 | 9.6 | 0.00 | 0.00 | 0.00 | 89 | 1008.4 |
| 20260506073017 | 74 | 138 | 0.0 | 7.0 | 0.00 | 0.00 | 0.00 | 88 | 1008.9 |
| 20260506071524 | 74 | 173 | 1.7 | 7.0 | 0.00 | 0.00 | 0.00 | 88 | 1009.0 |
| 20260506061524 | 75 | 175 | 1.7 | 7.0 | 0.00 | 0.00 | 0.00 | 87 | 1009.2 |
| 20260506044533 | 75 | 152 | 0.0 | 4.3 | 0.00 | 0.00 | 0.00 | 87 | 1009.1 |
| 20260506043014 | 75 | 131 | 1.7 | 7.0 | 0.00 | 0.00 | 0.00 | 87 | 1009.0 |
| 20260506041519 | 75 | 132 | 1.7 | 5.2 | 0.00 | 0.00 | 0.00 | 87 | 1008.9 |
| 20260506040021 | 75 | 113 | 0.9 | 3.5 | 0.00 | 0.00 | 0.00 | 87 | 1008.8 |
| 20260506034524 | 75 | 98 | 0.9 | 4.3 | 0.00 | 0.00 | 0.00 | 86 | 1008.6 |
| 20260506033033 | 75 | 103 | 0.0 | 2.6 | 0.00 | 0.00 | 0.00 | 85 | 1008.4 |
| 20260506031529 | 76 | 90 | 0.0 | 0.0 | 0.00 | 0.00 | 0.00 | 84 | 1008.2 |
| 20260506030046 | 76 | 178 | 0.0 | 2.6 | 0.00 | 0.00 | 0.00 | 83 | 1007.8 |
| 20260506024529 | 77 | 105 | 0.0 | 0.0 | 0.00 | 0.00 | 0.00 | 82 | 1007.6 |
| 20260506023027 | 77 | 98 | 0.9 | 2.6 | 0.00 | 0.00 | 0.00 | 81 | 1007.4 |
| 20260506021519 | 78 | 117 | 0.9 | 5.2 | 0.00 | 0.00 | 0.00 | 80 | 1007.3 |
| 20260506020020 | 78 | 157 | 1.7 | 4.3 | 0.00 | 0.00 | 0.00 | 79 | 1007.0 |
| 20260506014524 | 79 | 124 | 1.7 | 6.1 | 0.00 | 0.00 | 0.00 | 77 | 1006.7 |
| 20260506013025 | 80 | 115 | 1.7 | 3.5 | 0.00 | 0.00 | 0.00 | 74 | 1006.5 |
| 20260506011534 | 81 | 124 | 0.0 | 0.0 | 0.00 | 0.00 | 0.00 | 71 | 1006.5 |
| 20260506010019 | 82 | 130 | 0.0 | 0.0 | 0.00 | 0.00 | 0.00 | 70 | 1006.4 |
| 20260506004536 | 83 | 120 | 0.0 | 0.0 | 0.00 | 0.00 | 0.00 | 69 | 1006.5 |
| 20260506003032 | 84 | 159 | 0.0 | 0.0 | 0.00 | 0.00 | 0.00 | 68 | 1006.4 |
| 20260506001528 | 84 | 168 | 0.0 | 0.0 | 0.00 | 0.00 | 0.00 | 67 | 1006.5 |
| 20260506000030 | 85 | 193 | 0.9 | 2.6 | 0.00 | 0.00 | 0.00 | 66 | 1006.4 |
| 20260505234522 | 85 | 180 | 1.7 | 6.1 | 0.00 | 0.00 | 0.00 | 64 | 1006.4 |
| 20260505233007 | 85 | 188 | 1.7 | 7.8 | 0.00 | 0.00 | 0.00 | 65 | 1006.3 |
| 20260505231520 | 85 | 186 | 1.7 | 6.1 | 0.00 | 0.00 | 0.00 | 64 | 1006.3 |
| 20260505230015 | 85 | 165 | 0.9 | 7.0 | 0.00 | 0.00 | 0.00 | 65 | 1006.2 |
| 20260505224517 | 85 | 204 | 1.7 | 7.0 | 0.00 | 0.00 | 0.00 | 65 | 1006.2 |
| 20260505223024 | 84 | 172 | 3.5 | 8.7 | 0.00 | 0.00 | 0.00 | 65 | 1006.1 |
| 20260505221508 | 85 | 198 | 2.6 | 7.0 | 0.00 | 0.00 | 0.00 | 64 | 1006.3 |
| 20260505220015 | 85 | 122 | 4.3 | 10.4 | 0.00 | 0.00 | 0.00 | 63 | 1006.2 |
| 20260505214518 | 85 | 169 | 2.6 | 9.6 | 0.00 | 0.00 | 0.00 | 65 | 1006.2 |
| 20260505213022 | 85 | 163 | 2.6 | 7.8 | 0.00 | 0.00 | 0.00 | 65 | 1006.5 |
| 20260505211506 | 85 | 107 | 4.3 | 9.6 | 0.00 | 0.00 | 0.00 | 65 | 1006.7 |
| 20260505210014 | 86 | 181 | 1.7 | 8.7 | 0.00 | 0.00 | 0.00 | 65 | 1006.9 |
| 20260505204517 | 86 | 115 | 2.6 | 9.6 | 0.00 | 0.00 | 0.00 | 64 | 1007.3 |
| 20260505203027 | 85 | 154 | 2.6 | 7.0 | 0.00 | 0.00 | 0.00 | 66 | 1007.5 |